[[{"header":{"parameterUnit":"m.s-1","parameterCategory":1,"la1":30.2991,"la2":30.254,"lo1":-89.0895,"lo2":-89.0444,"dy":0.0017,"dx":0.0017,"nx":28,"ny":28,"refTime":"2023-08-29T21:00:00:Z","depth":0,"parameterNumber":2,"parameterNumberName":"U-component_of_WINDS"},"data":[0,0,0,0,0,0,0,0,0,0,0,0,0,0,0,0,0,0,0,0,0,0,0,0,0,0,0,0,0,0,0,0,0,0,0,0,0,0,0,0,0,0,0,0,0,0,0,0,0,0,0,0,0,0,0,0,0,0,0.6677,0.6679,0,0.6819,0.6821,0.6822,0.6878,0.6878,0.6877,0.6877,0.7029,0.7033,0.7037,0,0,0,0,0,0,0,0,0,0,0,0,0,0.6462,0.6465,0.6677,0.6679,0.6681,0.6819,0.6821,0.6823,0.6878,0.6878,0.6877,0.6877,0.7027,0.7033,0.7038,0,0,0,0,0,0,0,0,0,0,0,0,0,0.6575,0.6467,0.6677,0.6725,0.6731,0.6818,0.6821,0.6823,0.6878,0.6878,0.6877,0.6877,0.7026,0.7032,0.7039,0.7091,0,0,0.7059,0.7062,0,0,0,0,0,0,0,0,0.6568,0.6583,0.6716,0.6722,0.6728,0.683,0.68,0.6913,0.6879,0.6822,0.6877,0.6876,0.6964,0.6975,0.7003,0.7098,0.7104,0.7059,0.7063,0.7066,0.7068,0,0,0,0,0,0,0,0.656,0.6577,0.6733,0.6718,0.6725,0.6742,0.6757,0.6822,0.6895,0.6827,0.6832,0.6847,0.6967,0.6997,0.7007,0.7107,0.7059,0.7065,0.7069,0.7072,0.7254,0.7255,0,0,0,0,0,0,0.6544,0.657,0.6729,0.6738,0.6645,0.6746,0.6763,0.6798,0.6894,0.6908,0.6848,0.6849,0.6986,0.7,0.7013,0.7082,0.7066,0.7072,0.7076,0.7253,0.7254,0.7255,0,0,0,0,0,0,0.6539,0.6557,0.6723,0.6655,0.6677,0.675,0.6789,0.6801,0.6831,0.6909,0.6923,0.6864,0.6986,0.7004,0.7071,0.7088,0.7075,0.7081,0.7252,0.7254,0.7255,0.7219,0,0,0,0,0,0,0.6532,0.6555,0.6574,0.6655,0.6681,0.6777,0.679,0.6804,0.6842,0.6845,0.6929,0.6942,0.6987,0.7061,0.7078,0.7097,0.7086,0.7251,0.7253,0.7254,0.7219,0.7219,0.7219,0,0,0,0,0,0.6524,0.6559,0.6574,0.6593,0.6705,0.6777,0.6792,0.6841,0.6843,0.6864,0.6914,0.694,0.7083,0.7067,0.7087,0.7108,0.725,0.7252,0.7254,0.7219,0.7219,0.7219,0,0,0,0,0,0,0.648,0.6571,0.6589,0.665,0.6705,0.6787,0.6814,0.6839,0.6897,0.6898,0.6958,0.6977,0.704,0.7081,0.7062,0.7165,0.7169,0.7175,0.7136,0.7136,0.7136,0.7125,0.7092,0,0,0,0,0,0.6477,0.6526,0.6603,0.665,0.6677,0.674,0.6774,0.6806,0.6867,0.6891,0.6947,0.7007,0.7066,0.7103,0.7162,0.7225,0.7246,0.725,0.725,0.7249,0.7254,0.7293,0.7296,0.7262,0.7262,0.7262,0,0,0.6472,0.6528,0.6555,0.6643,0.6689,0.6741,0.676,0.6813,0.6853,0.69,0.6967,0.701,0.7081,0.7147,0.7179,0.7184,0.7268,0.7252,0.7251,0.7256,0.7296,0.7299,0.7302,0.7263,0.7263,0.7263,0,0,0.6489,0.6535,0.658,0.6626,0.6696,0.6739,0.6749,0.6827,0.6857,0.6925,0.6962,0.7011,0.711,0.716,0.7198,0.7236,0.7262,0.7253,0.7253,0.7291,0.7293,0.7296,0.7311,0.7316,0.7258,0.7258,0.7258,0,0.6475,0.6551,0.66,0.6652,0.669,0.6734,0.6781,0.6825,0.6911,0.6938,0.6941,0.7067,0.7118,0.7198,0.7207,0.7236,0.7252,0.7244,0.7288,0.7292,0.7295,0.731,0.7316,0.7256,0.7256,0.7256,0.7257,0,0.6531,0.6584,0.6612,0.6692,0.6734,0.6783,0.6842,0.6879,0.6909,0.6952,0.7022,0.7084,0.7157,0.7178,0.7208,0.7262,0.7263,0.7276,0.7282,0.7296,0.7311,0.7317,0.7254,0.7255,0.7255,0.7255,0,0,0.6524,0.6631,0.664,0.6678,0.6759,0.6802,0.6855,0.6924,0.6955,0.7014,0.7061,0.7145,0.7158,0.7201,0.7237,0.727,0.7298,0.728,0.7283,0.7282,0.7364,0.7354,0.736,0.7316,0.7317,0.7318,0.7359,0,0.6553,0.6646,0.6692,0.6766,0.6817,0.686,0.6906,0.6962,0.7004,0.7056,0.7103,0.7162,0.7174,0.7201,0.7235,0.7287,0.7315,0.7285,0.7363,0.7365,0.7344,0.7368,0.7357,0.7393,0.7365,0.7366,0.7367,0,0.6599,0.6655,0.6733,0.681,0.6833,0.6873,0.6941,0.6989,0.7055,0.7083,0.7132,0.7167,0.7227,0.7227,0.7312,0.729,0.7325,0.7356,0.7358,0.7368,0.7367,0.738,0.7405,0.7411,0.7376,0.7376,0.7375,0,0.6587,0.6683,0.6743,0.6774,0.6864,0.6891,0.6931,0.6995,0.7035,0.7095,0.7122,0.7189,0.7226,0.7278,0.7332,0.7327,0.7412,0.7417,0.744,0.7438,0.7456,0.7455,0.7489,0.7477,0.7477,0.7477,0.7476,0,0.6615,0.6662,0.6739,0.6775,0.683,0.6884,0.6938,0.6981,0.7038,0.7087,0.7129,0.7173,0.7241,0.7295,0.7338,0.7402,0.7419,0.7445,0.7456,0.7442,0.7439,0.7466,0.7466,0.7478,0.7478,0.7477,0.7477,0,0.6611,0.6664,0.6733,0.6812,0.6834,0.687,0.694,0.6979,0.7023,0.7084,0.7101,0.7171,0.7237,0.7296,0.7384,0.7413,0.7479,0.7492,0.7456,0.7463,0.7483,0.7481,0.7537,0.7548,0.7527,0.7527,0.7527,0,0.6626,0.6663,0.6746,0.678,0.6818,0.6873,0.6913,0.6968,0.7009,0.7087,0.7117,0.7186,0.7244,0.7348,0.7408,0.7476,0.7492,0.7507,0.7503,0.7488,0.7494,0.7492,0.7497,0.7507,0.7507,0.7507,0.7507,0,0.6647,0.6672,0.6726,0.679,0.6836,0.689,0.6946,0.6972,0.7039,0.7082,0.7149,0.7194,0.7283,0.7352,0.7427,0.7471,0.7501,0.7508,0.7517,0.7503,0.7481,0.7495,0.7457,0.7506,0.7506,0.7506,0.7506,0.7507,0.6654,0.6689,0.6753,0.6814,0.6861,0.6912,0.6953,0.7002,0.7057,0.7133,0.7163,0.7232,0.73,0.7403,0.7447,0.7503,0.7509,0.7522,0.7525,0.7528,0.7526,0.7471,0.7517,0.7517,0.7517,0.7517,0.7517,0,0.6678,0.6722,0.6776,0.6852,0.69,0.6922,0.6985,0.7024,0.7083,0.7142,0.7198,0.7276,0.7344,0.7409,0.7481,0.7513,0.7529,0.753,0.7529,0.7539,0.7516,0.7502,0.7516,0.7516,0.7516,0.7516,0.7516,0.7516,0.6697,0.6758,0.679,0.6877,0.6921,0.6986,0.7021,0.7069,0.7117,0.7201,0.7257,0.7298,0.7361,0.7438,0.7501,0.7519,0.7544,0.7542,0.7564,0.7541,0.7541,0.754,0.7527,0.7546,0.7546,0.7582,0.7582,0.7583]},{"header":{"parameterUnit":"m.s-1","parameterCategory":1,"la1":30.2991,"la2":30.254,"lo1":-89.0895,"lo2":-89.0444,"dy":0.0017,"dx":0.0017,"nx":28,"ny":28,"refTime":"2023-08-29T21:00:00:Z","depth":0,"parameterNumber":3,"parameterNumberName":"V-component_of_WINDS"},"data":[0,0,0,0,0,0,0,0,0,0,0,0,0,0,0,0,0,0,0,0,0,0,0,0,0,0,0,0,0,0,0,0,0,0,0,0,0,0,0,0,0,0,0,0,0,0,0,0,0,0,0,0,0,0,0,0,0,0,-4.5143,-4.5144,0,-4.5186,-4.5186,-4.5186,-4.5204,-4.5203,-4.5203,-4.5203,-4.5241,-4.5242,-4.5243,0,0,0,0,0,0,0,0,0,0,0,0,0,-4.5074,-4.5075,-4.5143,-4.5144,-4.5144,-4.5185,-4.5186,-4.5187,-4.5204,-4.5203,-4.5203,-4.5203,-4.5241,-4.5242,-4.5243,0,0,0,0,0,0,0,0,0,0,0,0,0,-4.5108,-4.5075,-4.5143,-4.5158,-4.516,-4.5185,-4.5186,-4.5187,-4.5204,-4.5203,-4.5203,-4.5203,-4.524,-4.5242,-4.5244,-4.5256,0,0,-4.5249,-4.5249,0,0,0,0,0,0,0,0,-4.5106,-4.5111,-4.5155,-4.5157,-4.5159,-4.5189,-4.5175,-4.521,-4.5204,-4.5187,-4.5203,-4.5203,-4.5224,-4.5227,-4.5235,-4.5258,-4.5259,-4.5249,-4.525,-4.525,-4.5251,0,0,0,0,0,0,0,-4.5104,-4.5109,-4.516,-4.5156,-4.5158,-4.5161,-4.5166,-4.5182,-4.5205,-4.5188,-4.519,-4.5195,-4.5225,-4.5233,-4.5236,-4.526,-4.5249,-4.525,-4.5251,-4.5252,-4.5298,-4.5298,0,0,0,0,0,0,-4.51,-4.5107,-4.5158,-4.5161,-4.5132,-4.5163,-4.5168,-4.518,-4.5205,-4.5209,-4.5195,-4.5195,-4.523,-4.5234,-4.5237,-4.5255,-4.525,-4.5252,-4.5253,-4.5297,-4.5298,-4.5298,0,0,0,0,0,0,-4.5098,-4.5104,-4.5157,-4.5135,-4.5142,-4.5164,-4.5177,-4.518,-4.5189,-4.521,-4.5214,-4.5199,-4.523,-4.5235,-4.5252,-4.5256,-4.5253,-4.5254,-4.5297,-4.5297,-4.5298,-4.5289,0,0,0,0,0,0,-4.5096,-4.5104,-4.5109,-4.5135,-4.5143,-4.5172,-4.5177,-4.5181,-4.5192,-4.5194,-4.5215,-4.5219,-4.5231,-4.525,-4.5254,-4.5258,-4.5255,-4.5297,-4.5297,-4.5298,-4.5289,-4.5289,-4.5289,0,0,0,0,0,-4.5094,-4.5103,-4.5109,-4.5115,-4.515,-4.5172,-4.5177,-4.5192,-4.5193,-4.5198,-4.5212,-4.5218,-4.5255,-4.5251,-4.5256,-4.5261,-4.5296,-4.5297,-4.5298,-4.5289,-4.5289,-4.5289,0,0,0,0,0,0,-4.5075,-4.5107,-4.5114,-4.5132,-4.515,-4.5175,-4.5182,-4.5191,-4.5207,-4.5207,-4.5223,-4.5228,-4.5244,-4.5254,-4.5249,-4.5276,-4.5276,-4.5278,-4.5268,-4.5269,-4.5269,-4.5266,-4.5257,0,0,0,0,0,-4.5074,-4.509,-4.5116,-4.513,-4.5139,-4.5159,-4.5169,-4.518,-4.5197,-4.5204,-4.5219,-4.5235,-4.5251,-4.526,-4.5275,-4.5291,-4.5296,-4.5297,-4.5297,-4.5297,-4.5298,-4.5309,-4.531,-4.53,-4.53,-4.53,0,0,-4.5069,-4.5089,-4.5098,-4.5127,-4.5142,-4.5158,-4.5165,-4.5181,-4.5193,-4.5206,-4.5224,-4.5236,-4.5255,-4.5272,-4.528,-4.5281,-4.5302,-4.5298,-4.5298,-4.5299,-4.5309,-4.531,-4.5311,-4.53,-4.53,-4.53,0,0,-4.5071,-4.5087,-4.5102,-4.5117,-4.5141,-4.5155,-4.5158,-4.5183,-4.5192,-4.5211,-4.5222,-4.5236,-4.5261,-4.5275,-4.5285,-4.5295,-4.5301,-4.5299,-4.5299,-4.5309,-4.531,-4.5311,-4.5315,-4.5316,-4.53,-4.53,-4.53,0,-4.5062,-4.5089,-4.5107,-4.5124,-4.5137,-4.5152,-4.5167,-4.518,-4.5206,-4.5214,-4.5215,-4.525,-4.5263,-4.5285,-4.5288,-4.5295,-4.5299,-4.5296,-4.5309,-4.531,-4.5311,-4.5315,-4.5316,-4.53,-4.53,-4.53,-4.53,0,-4.5078,-4.5096,-4.5104,-4.5133,-4.5146,-4.5161,-4.5182,-4.5193,-4.5203,-4.5217,-4.5236,-4.5254,-4.5274,-4.5279,-4.5288,-4.5302,-4.5302,-4.5306,-4.5307,-4.5311,-4.5315,-4.5317,-4.5299,-4.5299,-4.53,-4.53,0,0,-4.5066,-4.5108,-4.511,-4.5124,-4.5153,-4.5166,-4.5183,-4.5205,-4.5214,-4.5232,-4.5246,-4.5269,-4.5274,-4.5285,-4.5295,-4.5304,-4.5312,-4.5307,-4.5308,-4.5308,-4.5331,-4.5328,-4.533,-4.5317,-4.5318,-4.5318,-4.5329,0,-4.5072,-4.5104,-4.5123,-4.5147,-4.5164,-4.5181,-4.5195,-4.5213,-4.5227,-4.5243,-4.5257,-4.5274,-4.5278,-4.5285,-4.5295,-4.5309,-4.5317,-4.5309,-4.533,-4.533,-4.5325,-4.5332,-4.5329,-4.5338,-4.5331,-4.5331,-4.5331,0,-4.5082,-4.5103,-4.513,-4.5159,-4.5167,-4.518,-4.5203,-4.5218,-4.5239,-4.5249,-4.5263,-4.5274,-4.5291,-4.5292,-4.5316,-4.531,-4.5319,-4.5328,-4.5329,-4.5331,-4.5331,-4.5334,-4.5342,-4.5343,-4.5334,-4.5334,-4.5334,0,-4.5072,-4.5107,-4.5129,-4.514,-4.5174,-4.5183,-4.5197,-4.5218,-4.5231,-4.525,-4.5259,-4.5279,-4.529,-4.5305,-4.5321,-4.5319,-4.5344,-4.5345,-4.5351,-4.5351,-4.5355,-4.5355,-4.5364,-4.5361,-4.5361,-4.5361,-4.5361,0,-4.5077,-4.5092,-4.5125,-4.5138,-4.5157,-4.5178,-4.5195,-4.521,-4.523,-4.5245,-4.5259,-4.5273,-4.5294,-4.531,-4.5322,-4.5341,-4.5345,-4.5353,-4.5356,-4.5352,-4.5351,-4.5358,-4.5358,-4.5361,-4.5361,-4.5361,-4.5361,0,-4.5068,-4.5091,-4.5115,-4.5147,-4.5155,-4.5168,-4.5194,-4.5207,-4.5222,-4.5242,-4.5248,-4.5271,-4.5291,-4.5309,-4.5335,-4.5343,-4.5362,-4.5366,-4.5356,-4.5358,-4.5363,-4.5363,-4.5378,-4.5382,-4.5375,-4.5375,-4.5375,0,-4.507,-4.5083,-4.5117,-4.513,-4.5145,-4.5165,-4.518,-4.5201,-4.5215,-4.5242,-4.5251,-4.5273,-4.5292,-4.5323,-4.5341,-4.5361,-4.5366,-4.537,-4.5369,-4.5365,-4.5367,-4.5366,-4.5368,-4.537,-4.537,-4.537,-4.5369,0,-4.507,-4.5081,-4.5103,-4.5129,-4.5146,-4.5167,-4.5188,-4.5197,-4.5222,-4.5237,-4.5259,-4.5274,-4.5302,-4.5324,-4.5346,-4.5359,-4.5368,-4.537,-4.5373,-4.5369,-4.5363,-4.5367,-4.5356,-4.5369,-4.5369,-4.5369,-4.5369,-4.5369,-4.5067,-4.508,-4.5108,-4.5131,-4.515,-4.517,-4.5185,-4.5204,-4.5224,-4.525,-4.5261,-4.5284,-4.5306,-4.5338,-4.5352,-4.5369,-4.537,-4.5374,-4.5375,-4.5376,-4.5375,-4.536,-4.5373,-4.5373,-4.5373,-4.5373,-4.5373,0,-4.5069,-4.5088,-4.511,-4.5141,-4.516,-4.517,-4.5194,-4.5209,-4.523,-4.5251,-4.527,-4.5296,-4.5318,-4.5339,-4.5362,-4.5371,-4.5376,-4.5377,-4.5376,-4.5379,-4.5372,-4.5368,-4.5372,-4.5372,-4.5372,-4.5372,-4.5372,-4.5372,-4.5072,-4.5096,-4.5111,-4.5145,-4.5163,-4.5188,-4.5201,-4.522,-4.5237,-4.5267,-4.5286,-4.5301,-4.5322,-4.5347,-4.5367,-4.5373,-4.538,-4.5379,-4.5386,-4.5379,-4.5379,-4.5379,-4.5375,-4.5381,-4.5381,-4.5392,-4.5392,-4.5392]}]]